[[{"header":{"parameterUnit":"m.s-1","parameterCategory":1,"la1":30.2991,"la2":30.254,"lo1":-89.0895,"lo2":-89.0444,"dx":0.0017,"dy":0.0017,"nx":28,"ny":28,"refTime":"2022-11-03T15:00:00:Z","depth":0,"parameterNumber":2,"parameterNumberName":"U-component_of_WINDS"},"data":[0,0,0,0,0,0,0,0,0,0,0,0,0,0,0,0,0,0,0,0,0,0,0,0,0,0,0,0,0,0,0,0,0,0,0,0,0,0,0,0,0,0,0,0,0,0,0,0,0,0,0,0,0,0,0,0,0,0,-5.2287,-5.2288,0,-5.2341,-5.2342,-5.2343,-5.226,-5.2257,-5.2254,-5.2252,-5.2306,-5.231,-5.2314,0,0,0,0,0,0,0,0,0,0,0,0,0,-5.2114,-5.2118,-5.2287,-5.2288,-5.2289,-5.2341,-5.2342,-5.2343,-5.2261,-5.2257,-5.2254,-5.225,-5.2305,-5.231,-5.2315,0,0,0,0,0,0,0,0,0,0,0,0,0,-5.2181,-5.2119,-5.2287,-5.2254,-5.2252,-5.2341,-5.2342,-5.2343,-5.2261,-5.2257,-5.2253,-5.2249,-5.2303,-5.2309,-5.2315,-5.2439,0,0,-5.2334,-5.2337,0,0,0,0,0,0,0,0,-5.2178,-5.2188,-5.2258,-5.2257,-5.2254,-5.229,-5.2301,-5.2375,-5.2263,-5.2258,-5.2252,-5.2247,-5.2304,-5.231,-5.2329,-5.2442,-5.2444,-5.2335,-5.2339,-5.2341,-5.2343,0,0,0,0,0,0,0,-5.2173,-5.2185,-5.2309,-5.2259,-5.2257,-5.2237,-5.2242,-5.2315,-5.2304,-5.2258,-5.2252,-5.226,-5.2302,-5.2324,-5.233,-5.2445,-5.2335,-5.234,-5.2344,-5.2346,-5.2665,-5.2669,0,0,0,0,0,0,-5.2172,-5.2182,-5.2307,-5.231,-5.2204,-5.2244,-5.2249,-5.2283,-5.2303,-5.2302,-5.2263,-5.2256,-5.2315,-5.2323,-5.2332,-5.2479,-5.2341,-5.2347,-5.235,-5.266,-5.2666,-5.2671,0,0,0,0,0,0,-5.2169,-5.2184,-5.2305,-5.2244,-5.2258,-5.2251,-5.229,-5.2286,-5.2307,-5.2307,-5.2305,-5.2287,-5.2312,-5.2323,-5.2414,-5.248,-5.235,-5.2355,-5.2654,-5.2662,-5.2668,-5.2774,0,0,0,0,0,0,-5.2164,-5.2184,-5.223,-5.2246,-5.2262,-5.2386,-5.2294,-5.229,-5.2318,-5.2309,-5.2329,-5.2328,-5.231,-5.2405,-5.242,-5.2486,-5.236,-5.2648,-5.2658,-5.2666,-5.2764,-5.2784,-5.28,0,0,0,0,0,-5.2158,-5.2257,-5.2233,-5.2248,-5.232,-5.2389,-5.2398,-5.2375,-5.2324,-5.2371,-5.2372,-5.2328,-5.2471,-5.2415,-5.2431,-5.25,-5.2644,-5.2655,-5.2665,-5.2756,-5.278,-5.28,0,0,0,0,0,0,-5.2247,-5.2258,-5.2231,-5.2338,-5.2364,-5.2375,-5.2433,-5.2401,-5.2441,-5.243,-5.24,-5.2405,-5.2503,-5.2511,-5.2448,-5.2622,-5.2549,-5.2563,-5.2613,-5.2635,-5.2653,-5.2647,-5.2365,0,0,0,0,0,-5.2279,-5.2335,-5.2342,-5.2435,-5.245,-5.244,-5.2469,-5.245,-5.2475,-5.2485,-5.2492,-5.2518,-5.2569,-5.2603,-5.265,-5.2767,-5.277,-5.2822,-5.284,-5.2855,-5.2867,-5.293,-5.2954,-5.2706,-5.2706,-5.2706,0,0,-5.2345,-5.2359,-5.2395,-5.2454,-5.2471,-5.253,-5.2449,-5.2514,-5.2558,-5.2495,-5.258,-5.2588,-5.2615,-5.272,-5.2766,-5.2729,-5.2937,-5.2868,-5.288,-5.2884,-5.2944,-5.2967,-5.2988,-5.2713,-5.2712,-5.2711,0,0,-5.2496,-5.2512,-5.2592,-5.2612,-5.264,-5.2634,-5.2654,-5.2672,-5.2674,-5.276,-5.2715,-5.2767,-5.2855,-5.2877,-5.2899,-5.3064,-5.3025,-5.308,-5.3173,-5.3235,-5.3255,-5.3272,-5.333,-5.3351,-5.3093,-5.3093,-5.3093,0,-5.2574,-5.2661,-5.2637,-5.2706,-5.2733,-5.2682,-5.2763,-5.2784,-5.2826,-5.2846,-5.2805,-5.2916,-5.2931,-5.3041,-5.3081,-5.3102,-5.3123,-5.3076,-5.3254,-5.3271,-5.3286,-5.3342,-5.3364,-5.31,-5.3099,-5.3098,-5.3098,0,-5.2756,-5.2818,-5.2879,-5.2922,-5.2957,-5.3032,-5.302,-5.3059,-5.3038,-5.3036,-5.3126,-5.3143,-5.3193,-5.3218,-5.3197,-5.3326,-5.3302,-5.3259,-5.3184,-5.3317,-5.3368,-5.3389,-5.3109,-5.3106,-5.3104,-5.3103,0,0,-5.2959,-5.2992,-5.3014,-5.3034,-5.3064,-5.3111,-5.3185,-5.3235,-5.3269,-5.3301,-5.3362,-5.3441,-5.3401,-5.3427,-5.3409,-5.3465,-5.3594,-5.3414,-5.3414,-5.3446,-5.3737,-5.3768,-5.3793,-5.357,-5.3574,-5.3577,-5.3734,0,-5.3109,-5.3236,-5.3218,-5.3341,-5.3398,-5.3352,-5.3417,-5.3442,-5.3444,-5.3493,-5.3496,-5.3551,-5.3495,-5.3511,-5.3564,-5.3567,-5.3652,-5.3556,-5.3626,-5.3629,-5.3618,-5.382,-5.3853,-5.4,-5.3754,-5.3758,-5.376,0,-5.3298,-5.3339,-5.3468,-5.3491,-5.3514,-5.3573,-5.3618,-5.3666,-5.3696,-5.3693,-5.3725,-5.3698,-5.3774,-5.3701,-5.3804,-5.3739,-5.3768,-5.3775,-5.378,-5.3783,-5.3701,-5.3827,-5.4046,-5.4068,-5.3792,-5.3789,-5.3787,0,-5.3433,-5.352,-5.3608,-5.3627,-5.3657,-5.3699,-5.3714,-5.3739,-5.3771,-5.3812,-5.3833,-5.3882,-5.3908,-5.3948,-5.3935,-5.3883,-5.4042,-5.3967,-5.4042,-5.4042,-5.4074,-5.4072,-5.4299,-5.4097,-5.4097,-5.4096,-5.4096,0,-5.36,-5.368,-5.3669,-5.3723,-5.3813,-5.3794,-5.3883,-5.3892,-5.3916,-5.3971,-5.3936,-5.3989,-5.3971,-5.4024,-5.4015,-5.4103,-5.4115,-5.4115,-5.4112,-5.4117,-5.4117,-5.4133,-5.4122,-5.4102,-5.4101,-5.41,-5.4099,0,-5.3763,-5.3759,-5.3853,-5.3875,-5.3882,-5.3947,-5.3966,-5.4018,-5.4019,-5.409,-5.4106,-5.4107,-5.4167,-5.4161,-5.4228,-5.4222,-5.4331,-5.4316,-5.4321,-5.4316,-5.4391,-5.4383,-5.4634,-5.4666,-5.4445,-5.4447,-5.4449,0,-5.3868,-5.3929,-5.3959,-5.3994,-5.4012,-5.4069,-5.4102,-5.4088,-5.4124,-5.4165,-5.4212,-5.4269,-5.4314,-5.4413,-5.442,-5.4473,-5.4458,-5.4542,-5.4465,-5.4469,-5.4457,-5.4453,-5.4459,-5.4556,-5.4559,-5.4561,-5.4562,0,-5.4056,-5.4052,-5.4102,-5.4152,-5.4193,-5.4232,-5.4267,-5.4298,-5.4287,-5.433,-5.4392,-5.4427,-5.4498,-5.4556,-5.4606,-5.4621,-5.459,-5.4588,-5.4607,-5.4612,-5.4612,-5.4612,-5.436,-5.4581,-5.4579,-5.4578,-5.4577,-5.4576,-5.4193,-5.4245,-5.4275,-5.4332,-5.4358,-5.4392,-5.4442,-5.4451,-5.4503,-5.4559,-5.4548,-5.4618,-5.4649,-5.4713,-5.4734,-5.4789,-5.4758,-5.4787,-5.4794,-5.4801,-5.4809,-5.4606,-5.4799,-5.4798,-5.4798,-5.4797,-5.4797,0,-5.4377,-5.4396,-5.4449,-5.45,-5.4546,-5.4515,-5.4553,-5.4593,-5.4656,-5.4688,-5.4734,-5.4806,-5.4863,-5.4877,-5.4932,-5.4974,-5.4961,-5.4988,-5.4984,-5.4988,-5.4834,-5.4811,-5.4998,-5.4998,-5.4998,-5.4997,-5.4997,-5.4997,-5.4479,-5.4566,-5.4567,-5.4668,-5.4685,-5.4754,-5.4779,-5.4811,-5.4837,-5.4919,-5.4967,-5.4976,-5.5001,-5.5059,-5.511,-5.5113,-5.5134,-5.5167,-5.5164,-5.5019,-5.4999,-5.4979,-5.4957,-5.5172,-5.5172,-5.5313,-5.5314,-5.5315]},{"header":{"parameterUnit":"m.s-1","parameterCategory":1,"la1":30.2991,"la2":30.254,"lo1":-89.0895,"lo2":-89.0444,"dx":0.0017,"dy":0.0017,"nx":28,"ny":28,"refTime":"2022-11-03T15:00:00:Z","depth":0,"parameterNumber":3,"parameterNumberName":"V-component_of_WINDS"},"data":[0,0,0,0,0,0,0,0,0,0,0,0,0,0,0,0,0,0,0,0,0,0,0,0,0,0,0,0,0,0,0,0,0,0,0,0,0,0,0,0,0,0,0,0,0,0,0,0,0,0,0,0,0,0,0,0,0,0,3.5891,3.5892,0,3.5957,3.5958,3.5959,3.5928,3.5926,3.5924,3.5923,3.599,3.5993,3.5996,0,0,0,0,0,0,0,0,0,0,0,0,0,3.5738,3.5741,3.5891,3.5892,3.5892,3.5957,3.5958,3.5959,3.5928,3.5926,3.5924,3.5922,3.5989,3.5993,3.5997,0,0,0,0,0,0,0,0,0,0,0,0,0,3.5805,3.5742,3.5891,3.5885,3.5885,3.5957,3.5958,3.5959,3.5928,3.5926,3.5923,3.5921,3.5987,3.5992,3.5997,3.6079,0,0,3.6013,3.6015,0,0,0,0,0,0,0,0,3.5801,3.581,3.5885,3.5885,3.5886,3.5932,3.5929,3.5999,3.5929,3.5912,3.5923,3.592,3.5972,3.5979,3.5997,3.6082,3.6085,3.6013,3.6016,3.6018,3.602,0,0,0,0,0,0,0,3.5796,3.5807,3.5917,3.5886,3.5887,3.5879,3.5886,3.5942,3.5955,3.5913,3.5911,3.592,3.5972,3.5992,3.5998,3.6086,3.6013,3.6017,3.602,3.6022,3.6245,3.6248,0,0,0,0,0,0,3.5792,3.5804,3.5915,3.5919,3.5836,3.5884,3.5892,3.5919,3.5955,3.5958,3.5922,3.5918,3.5984,3.5992,3.6,3.61,3.6018,3.6023,3.6026,3.6242,3.6245,3.6249,0,0,0,0,0,0,3.5789,3.5802,3.5912,3.5861,3.5874,3.589,3.5921,3.5922,3.5942,3.5961,3.5963,3.5939,3.5983,3.5993,3.606,3.6102,3.6025,3.603,3.6239,3.6243,3.6247,3.6299,0,0,0,0,0,0,3.5785,3.5801,3.5832,3.5862,3.5877,3.5971,3.5923,3.5925,3.595,3.5946,3.5978,3.5981,3.5982,3.6053,3.6065,3.6107,3.6034,3.6235,3.6241,3.6246,3.6293,3.6304,3.6314,0,0,0,0,0,3.5779,3.5842,3.5833,3.5847,3.5916,3.5973,3.5982,3.5982,3.5954,3.5985,3.5998,3.598,3.6095,3.606,3.6074,3.6118,3.6232,3.6239,3.6245,3.6289,3.6302,3.6313,0,0,0,0,0,0,3.5815,3.5846,3.5836,3.5911,3.594,3.5968,3.6007,3.5995,3.6032,3.6027,3.6025,3.6032,3.6102,3.6117,3.6077,3.62,3.616,3.6169,3.6188,3.6201,3.6211,3.6206,3.6038,0,0,0,0,0,3.5832,3.5876,3.5901,3.5964,3.598,3.5991,3.6016,3.6014,3.6043,3.6055,3.6073,3.6103,3.6146,3.6174,3.6215,3.6296,3.6303,3.6333,3.6343,3.6351,3.636,3.6406,3.6421,3.627,3.627,3.627,0,0,3.5866,3.5889,3.5916,3.5972,3.5994,3.6041,3.6001,3.6051,3.6086,3.6063,3.6128,3.6143,3.6176,3.6251,3.6285,3.6265,3.6403,3.636,3.6366,3.637,3.6415,3.6429,3.6441,3.6274,3.6274,3.6273,0,0,3.5953,3.5974,3.6031,3.6055,3.609,3.6098,3.6112,3.6142,3.6152,3.6217,3.6202,3.6244,3.6317,3.6342,3.6365,3.6467,3.6452,3.648,3.6533,3.6578,3.659,3.6601,3.6639,3.6652,3.6488,3.6488,3.6488,0,3.5992,3.6061,3.6061,3.6114,3.614,3.6123,3.6181,3.6204,3.6251,3.6269,3.6247,3.6342,3.6362,3.6445,3.647,3.6488,3.6505,3.6476,3.6588,3.6599,3.6609,3.6645,3.6659,3.6492,3.6491,3.6491,3.6491,0,3.6108,3.6157,3.6199,3.6246,3.6276,3.6331,3.6341,3.6372,3.6369,3.638,3.6449,3.6474,3.652,3.654,3.6536,3.6623,3.661,3.6588,3.6547,3.6626,3.6661,3.6674,3.6496,3.6495,3.6494,3.6493,0,0,3.6216,3.6266,3.6281,3.6304,3.6343,3.6381,3.6437,3.6484,3.6512,3.6545,3.6593,3.6658,3.6639,3.6665,3.6664,3.6704,3.6786,3.6678,3.6679,3.6698,3.6886,3.6903,3.6918,3.6777,3.6779,3.6782,3.6884,0,3.6307,3.6405,3.6409,3.6499,3.6545,3.6532,3.6581,3.6611,3.6623,3.6665,3.6679,3.6726,3.6697,3.6713,3.6752,3.6768,3.6824,3.676,3.6822,3.6824,3.6814,3.6936,3.6953,3.7048,3.6897,3.6899,3.6901,0,3.6426,3.6465,3.656,3.6596,3.6616,3.666,3.6705,3.6745,3.678,3.6786,3.6817,3.6812,3.687,3.6828,3.691,3.6867,3.6893,3.6905,3.6909,3.6915,3.6867,3.6946,3.7078,3.7092,3.6921,3.692,3.6918,0,3.6497,3.6574,3.6642,3.6661,3.6704,3.6736,3.6756,3.6788,3.6817,3.6857,3.6877,3.6922,3.6948,3.6984,3.6992,3.696,3.7074,3.7032,3.7082,3.7082,3.7106,3.7105,3.7245,3.7123,3.7122,3.7122,3.7122,0,3.6599,3.6658,3.6675,3.6716,3.6783,3.6788,3.6854,3.6871,3.6901,3.6946,3.6937,3.698,3.6988,3.7033,3.7039,3.7107,3.7118,3.7126,3.7127,3.7127,3.7127,3.7144,3.7138,3.7126,3.7125,3.7124,3.7124,0,3.6689,3.6703,3.6776,3.6813,3.6823,3.6871,3.6902,3.6943,3.6956,3.7014,3.7028,3.7048,3.7101,3.7113,3.7175,3.718,3.7261,3.7255,3.7249,3.7249,3.7299,3.7295,3.7456,3.7478,3.734,3.7341,3.7343,0,3.6753,3.6799,3.6841,3.6872,3.6893,3.6942,3.6973,3.698,3.7013,3.7058,3.7094,3.7146,3.7188,3.7274,3.7295,3.7343,3.7339,3.7392,3.7346,3.7346,3.7341,3.7339,3.7344,3.7401,3.7402,3.7404,3.7405,0,3.6866,3.6871,3.6916,3.6965,3.7002,3.7041,3.7077,3.7103,3.7115,3.7153,3.7208,3.7241,3.7306,3.7359,3.7409,3.7429,3.742,3.742,3.7434,3.7434,3.743,3.7434,3.7274,3.7415,3.7414,3.7413,3.7413,3.7412,3.6946,3.6987,3.7024,3.7075,3.7104,3.714,3.7181,3.72,3.7246,3.7301,3.7302,3.7363,3.74,3.7466,3.749,3.7538,3.7521,3.7542,3.7547,3.7552,3.7558,3.7422,3.7547,3.7547,3.7546,3.7546,3.7546,0,3.7059,3.7083,3.7131,3.7183,3.7224,3.7214,3.7254,3.7289,3.7343,3.7379,3.7422,3.7486,3.7539,3.7565,3.7617,3.765,3.7648,3.7664,3.7662,3.7667,3.7568,3.7551,3.7665,3.7665,3.7665,3.7665,3.7665,3.7665,3.7123,3.7193,3.7203,3.7288,3.7312,3.7372,3.7397,3.743,3.7459,3.7532,3.7576,3.7593,3.7626,3.7681,3.7729,3.7735,3.7755,3.7774,3.7778,3.7686,3.7674,3.7662,3.7646,3.7778,3.7778,3.7873,3.7874,3.7875]}]]